Location: Trementina
(35.4589°N, 104.4243°W)
Time: 17:01:21
(UTC+00:00)

Tiangong - Visible Passes

Search period start: 08 December 2022 00:00
Search period end: 18 December 2022 00:00
Orbit: 386 x 392 km, 41.5° (Epoch: 08 December)

Date Brightness Start Highest point End Pass type
(mag) Time Alt. Az. Time Alt. Az. Time Alt. Az.
08 Dec -0.9 00:26:42 10° NW 00:29:30 28° N 00:31:42 14° ENE visible
08 Dec 1.0 02:03:33 10° WNW 02:04:01 13° WNW 02:04:01 13° WNW visible
09 Dec -1.8 01:05:24 10° WNW 01:08:30 47° NNE 01:08:50 45° NE visible
10 Dec -1.3 00:07:12 10° NW 00:10:09 34° NNE 00:13:07 10° E visible
10 Dec -0.4 01:44:04 10° WNW 01:46:05 34° W 01:46:05 34° W visible
11 Dec -2.2 00:45:45 10° WNW 00:48:56 82° NNE 00:51:09 18° ESE visible
12 Dec -0.2 01:24:37 10° W 01:27:23 27° SSW 01:28:47 19° S visible
13 Dec -1.2 00:26:01 10° WNW 00:29:07 50° SSW 00:32:12 10° SE visible
14 Dec 1.0 01:05:37 10° WSW 01:07:19 14° SW 01:09:01 10° S visible
